Location: Be?i?
(36.9044°N, 30.1006°E)
Time: 13:12:07
(UTC+00:00)

Lacrosse 4 Rocket - Pass Details

Date: 05 August 2024
Orbit: 521 x 593 km, 68.0° (Epoch: 08 September)

Event Time Altitude Azimuth Distance (km) Brightness Sun altitude
Rises 17:41:23 0° 222° (SW) 2,669 5.0 -8.0°
Reaches altitude 10° 17:43:38 10° 230° (SW) 1,793 4.2 -8.4°
Maximum altitude 17:47:24 39° 300° (WNW) 825 3.0 -9.0°
Drops below altitude 10° 17:51:18 10° 11° (N) 1,847 4.3 -9.7°
Sets 17:53:40 0° 19° (NNE) 2,761 5.0 -10.1°
